Regional Weather Roundup
Issued by NWS

Home | Current Version | Previous Version | Text Only | Print | Product List | Glossary On
Versions: 1 2 3 4 5 6 7 8 9 10 11 12 13 14 15 16 17 18 19 20 21 22 23 24 25 26 27 28 29 30 31 32 33 34 35 36 37 38 39 40 41 42 43 44 45 46 47 48 49 50
000
ASUS43 KMPX 220310
RWRMN
WEATHER ROUNDUP FOR MINNESOTA
NATIONAL WEATHER SERVICE TWIN CITIES/CHANHASSEN MN
900 PM CST THU NOV 21 2019


NOTE: "FAIR" INDICATES FEW OR NO CLOUDS BELOW 12,000 FEET WITH NO
SIGNIFICANT WEATHER AND/OR OBSTRUCTIONS TO VISIBILITY. N/A MEANS
CURRENT SKY AND/OR WEATHER CONDITIONS ARE NOT AVAILABLE.

MNZ060>063-068>070-220400-
   Twin Cities Metro

CITY           SKY/WX    TMP DP  RH WIND       PRES   REMARKS
TWIN CITIES    MOCLDY    23  13  65 N14       30.18R WCI  11
ST PAUL        CLOUDY    23  13  65 NW17      30.20R WCI   9
CRYSTAL        CLOUDY    22  13  68 NW15      30.18R WCI   9
BLAINE         CLOUDY    23  16  74 NW12G18   30.17R WCI  12
LAKEVILLE      CLOUDY    25  19  80 NW10      30.16R WCI  15
EDEN PRAIRIE   CLOUDY    24  14  65 N13G24    30.17R WCI  12
SOUTH ST PAUL  CLOUDY    24  14  67 N15G22    30.18R WCI  11
LAKE ELMO      CLOUDY    23  18  80 N12G17    30.18R WCI  12
$$
MNZ001>005-007-008-013>017-022>024-027-028-220400-
   Northwest Minnesota

CITY           SKY/WX    TMP DP  RH WIND       PRES   REMARKS
BEMIDJI        FLURRIES  13  11  91 W7        30.17R WCI   3
HALLOCK        CLEAR      0  -4  85 S3        30.18F
WARROAD        CLOUDY    14  10  85 SW6       30.17S WCI   5
THIEF RVR FALL PTCLDY     6   4  91 SW6       30.20F WCI  -4
CROOKSTON      CLEAR      9   9 100 CALM      30.23S
FOSSTON        FLURRIES  10   9  92 CALM      30.20S
DETROIT LAKES  FLURRIES  14  12  92 NW8       30.21R WCI   3
MOORHEAD       CLOUDY    18   9  68 CALM      30.25S
PARK RAPIDS    CLOUDY    15  10  80 NW8       30.17R WCI   4
MAHNOMEN       FAIR      10   8  90 CALM      30.21R
$$
MNZ006-009>011-018-025>026-220400-
   North Central Minnesota

CITY           SKY/WX    TMP DP  RH WIND       PRES   REMARKS
BAUDETTE       CLOUDY    15  11  83 W9        30.15F WCI   3
FLAG ISLAND      N/A     14  10  85 W5        30.14S WCI   6
INTL FALLS     CLOUDY    17  13  84 NW9       30.12R WCI   6
WASKISH          N/A     16  12  86 NW6       30.17R WCI   7
BIG FORK       CLOUDY    16  14  93 CALM      30.18R
LONGVILLE      CLOUDY    18  14  86 W8        30.16R WCI   7
GRAND RAPIDS   FLURRIES  18  14  84 NW13      30.14S WCI   5
CRANE LAKE     CLOUDY    18  16  93 N6        30.13R WCI   9
ORR            CLOUDY    16  12  86 NW10      30.08R WCI   3
COOK           CLOUDY    18  16  93 W6        30.10R WCI   9
WALKER         FLURRIES  14  11  88 NW10      30.17S WCI   1
$$
MNZ012-019>021-037-220400-
   Northeast Minnesota

CITY           SKY/WX    TMP DP  RH WIND       PRES   REMARKS
DULUTH         FLURRIES  19  14  81 NW8       30.08R WCI   9
HIBBING        FLURRIES  17  14  88 NW8       30.10R WCI   7
EVELETH        FLURRIES  18  15  88 NW6       30.10R WCI   9
DULUTH HARBOR  CLOUDY    23  16  74 NW12G17   30.15R WCI  12
TWO HARBORS    MOCLDY    19  10  68 NW5       30.08R WCI  13
SILVER BAY     FAIR      18  16  93 CALM      30.07R
GRAND MARAIS     N/A     21  14  74 VRB3      30.05R
G MARAIS ARPRT CLOUDY    16  10  79 NW12      29.95R WCI   3
$$
MNZ029>031-032-039>041-046>048-054>057-064-220400-
   West Central Minnesota

CITY           SKY/WX    TMP DP  RH WIND       PRES   REMARKS
FERGUS FALLS   CLOUDY    14  10  85 N5        30.25R WCI   6
MORRIS         FLURRIES  16  10  79 N12G17    30.18R WCI   3
ALEXANDRIA     CLOUDY    16  10  77 NW8       30.20R WCI   5
ELBOW LAKE     FLURRIES  15  12  88 W12       30.23R WCI   2
WADENA         FLURRIES  16  10  79 N9        30.19R WCI   4
GLENWOOD       FLURRIES  16  12  86 NW10      30.20S WCI   3
APPLETON       CLOUDY    21  16  79 N12       30.24R WCI   9
BENSON         CLOUDY    16  10  79 N12       30.24R WCI   3
ORTONVILLE     CLOUDY    21  16  79 N9        30.24R WCI  11
MADISON        CLOUDY    25  19  80 N7        30.24S WCI  17
WILLMAR        CLOUDY    18  12  79 NW12      30.25R WCI   5
$$
MNZ033>034-036-042>043-049>051-058-059-220400-
   Central Minnesota

CITY           SKY/WX    TMP DP  RH WIND       PRES   REMARKS
ST CLOUD       CLOUDY    20  12  71 N8        30.19R WCI  10
SAUK CENTRE      N/A     17  11  78 NW7       30.20S WCI   8
PAYNESVILLE    CLOUDY    18  15  88 N9        30.21R WCI   7
AITKIN         MOCLDY    18  10  73 NW6       30.14R WCI   9
PINE RIVER     CLOUDY    16  10  79 N6        30.20R WCI   7
BRAINERD       CLOUDY    23  14  68 NW10      30.17R WCI  12
STAPLES        CLOUDY    16  10  79 N9        30.19R WCI   4
LONG PRAIRIE   CLOUDY    18  12  79 NW7       30.19R WCI   8
LITTLE FALLS   CLOUDY    21  14  73 NW7       30.19R WCI  13
LITCHFIELD       N/A     19  16  86 NW10      30.21R WCI   8
BUFFALO        MOCLDY    20  13  73 MISG      30.21R
MAPLE LAKE       N/A     21  15  78 NW9       30.20R WCI  11
HUTCHINSON     CLOUDY    21  16  81 NW15      30.21R WCI   7
$$
MNZ037-044-045-052-053-220400-
   East Central Minnesota

CITY           SKY/WX    TMP DP  RH WIND       PRES   REMARKS
PRINCETON      CLOUDY    21  16  79 NW9       30.18R WCI  11
MORA           CLOUDY    21  14  73 N6        30.18R WCI  14
CAMBRIDGE      FLURRIES  23  14  68 NW5       30.18R WCI  17
RUSH CITY      CLOUDY    22  15  75 NW8       30.17R WCI  12
MOOSE LAKE     CLOUDY    21  18  86 N7        30.12R WCI  13
HINCKLEY       CLOUDY    23  18  80 W5        30.15R WCI  17
CLOQUET        CLOUDY    19  14  79 NW9       30.11R WCI   9
MCGREGOR       CLOUDY    21  18  86 NW6       30.15R WCI  14
$$
MNZ071>073-080-081-089-090-097-098-220400-
   Southwest Minnesota

CITY           SKY/WX    TMP DP  RH WIND       PRES   REMARKS
MONTEVIDEO     CLOUDY    19  14  79 N10       30.24S WCI   8
GRANITE FALLS  CLOUDY    22  18  81 NW14      30.25R WCI  10
CANBY          CLEAR     19  18  93 NW6       30.25R WCI  11
MARSHALL       CLOUDY    22  18  85 NW13      30.23R WCI  10
REDWOOD FALLS  CLOUDY    20  15  81 NW12G22   30.22R WCI   8
PIPESTONE      CLEAR     19  18  93 CALM      30.20R
WORTHINGTON    MOCLDY    21  18  88 NW10      30.21R WCI  10
JACKSON        CLEAR     23  19  86 NW14G21   30.20R WCI  11
TRACY          CLOUDY   N/A N/A N/A NW3       30.22R
SLAYTON        CLOUDY    21  18  86 NW12      30.21R WCI   9
$$
MNZ065>067-074>077-082>085-091>093-220400-
   South Central Minnesota

CITY           SKY/WX    TMP DP  RH WIND       PRES   REMARKS
MANKATO        CLOUDY    20  16  84 NW14      30.21R WCI   7
NEW ULM        PTCLDY    18  14  86 NW15G21   30.22R WCI   3
GLENCOE        CLOUDY   N/A N/A N/A NW12      30.19R
FARIBAULT      CLOUDY    25  19  80 NW12G17   30.17R WCI  14
OWATONNA       CLOUDY    25  19  80 NW16G23   30.16R WCI  12
WASECA         CLOUDY    21  18  86 NW15      30.19R WCI   8
ALBERT LEA     MOCLDY    21  19  93 NW10G20   30.15R WCI  10
$$
MNZ078>079-086>088-094>096-220400-
   Southeast Minnesota

CITY           SKY/WX    TMP DP  RH WIND       PRES   REMARKS
ROCHESTER      CLOUDY    25  19  78 NW18      30.11R WCI  11
RED WING       CLOUDY    27  18  69 NW12G17   30.15R WCI  16
STANTON        CLOUDY    26  18  74 NW15      30.15R WCI  13
DODGE CENTER   CLOUDY    25  18  74 NW16G22   30.13R WCI  12
WINONA         MOCLDY    30  23  74 NW14G24   30.12R WCI  20
AUSTIN         CLOUDY    27  21  80 NW18G24   30.13R WCI  13
PRESTON        MOCLDY    25  19  79 NW16G29   30.10R WCI  12
$$
ABBREVIATIONS USED IN REMARKS
   TC - TEMPERATURES IN CELSIUS
  WCI - WIND CHILL INDEX
   HX - HEAT INDEX
  VSB - VISIBILITY
$$



USA.gov is the U.S. government's official web portal to all federal, state and local government web resources and services.